IRIDIUM 33 DEB, 35628

Orbit data source: Space-Track

IRIDIUM 33 DEB, 35628 is space debris in LEO originally from a launch on Sun, 14 Sep 1997 UTC launched from the Tyuratam Missile And Space Complex (TTMTR). The debris from Iridium 33, an American commercial communications satellite, has been tracked extensively since its accidental collision with the defunct Russian satellite Cosmos 2251 in 2009. This event, occurring at high speed in low Earth orbit (LEO), generated thousands of pieces of space debris, significantly increasing the risk of further collisions. The Iridium 33 debris cloud has impacted space traffic management and orbital debris mitigation strategies, making it a subject of ongoing study in space situational awareness.

Loading next visibility...
Identifier
35628, 1997-051RA
Orbit
LEO
Country
Flag of USUS
Related business
Manufacturer
Unknown
Mission
Spacecraft
Bus & Motor
Unknown
Mass
Unknown
Launch date (UTC)
1997-09-14 (29 years ago)
Launch vehicle
Unknown
Launch site
Tyuratam Missile And Space Complex (TTMTR)
Object type
Payload
Rocket body
Debris
Shape & HBR
Unknown shape, 0.1 m
Radar Cross Section
Small (<0.1 m²)

Expand to show TLE details & history
Last TLE update: 4 days ago

TLE from 4 days ago
0 IRIDIUM 33 DEB
1 35628U 97051RA  26204.93918177  .00005573  00000-0  90800-3 0  9995
2 35628  86.3533 269.2210 0008190 278.6628  81.3660 14.70830747897248
Epoch: 2026-07-23T22:32Z
TLE epoch observation values (Epoch: 2026-07-23T22:32:25.304Z)
Latitude
-0.00006°
Longitude
-10.55741°
Altitude
660.659 km
Speed
7.527 km/s
True Right ascension
17h 56m 53s
True Declination
0° 00' 00"
Sunlit
Object was in full shadow at epoch
Visualization orbit readout
Latitude
Unknown
Longitude
Unknown
Altitude
Unknown
Speed
Unknown
Apparent Right ascension
Unknown
Apparent Declination
Unknown
Sunlit
N/A
Visualization observer readout
Local Sidereal Time
22:03:06
Azimuth
Unknown
Elevation
Unknown
Doppler factor
Unknown
Orbital elements
Apogee altitude
661.092 km
Perigee altitude
649.571 km
Semi-major axis
7,033.468 km
Eccentricity
0.00082
Inclination
86.3533°
RAAN
269.221°
Arg. of periapsis
278.6628°
True anomaly
81.4588°
Mean anomaly
81.366°
Eccentric anomaly
81.4124°
Mean motion
3.6795 °/min
Orbital period
97.84 mins
BSTAR
0.000908
Loading maneuver chart data...
Computing Atmospheric mass density...

Documentation

Showing up to 5 results
|